Theta_e
305 301 302 300 302 303 304 304 308 309 306 315 319 315 312 310 306 308 310 314 317 320 317 317 317 315 316 318 317 317 318 317 317 316 316 311 314 311 308 306 303 302 299 298 297
301 299 300 302 302 302 305 305 307 309 306 316 316 312 313 313 314 304 309 314 315 315 316 317 318 316 317 317 318 318 319 317 315 314 311 308 307 308 309 303 303 300 298 296 296
300 298 300 301 301 304 306 304 307 311 308 316 313 314 311 312 311 304 307 312 313 314 314 315 315 316 317 316 316 318 318 316 312 311 311 307 303 302 306 302 299 299 297 295 294
299 298 300 300 304 305 304 306 308 311 311 317 313 309 308 310 312 300 305 312 314 313 314 314 314 315 315 316 315 317 310 312 309 308 311 309 303 299 299 299 298 298 296 294 293
298 298 300 300 305 306 308 310 309 310 313 316 314 309 310 305 301 298 303 308 312 313 313 315 315 315 315 314 314 314 309 306 307 306 304 301 300 298 297 296 295 296 295 294 292
298 298 300 303 306 308 310 310 309 308 309 311 308 307 309 302 298 298 302 306 309 313 307 308 314 313 314 314 315 311 308 305 304 303 305 304 301 301 296 295 295 294 294 293 291
298 298 300 305 306 307 309 309 311 306 304 305 306 305 300 298 297 297 300 301 304 308 308 305 305 308 307 314 310 309 307 305 303 302 299 303 301 296 295 295 294 293 293 292 291
297 298 300 305 307 308 310 309 307 309 307 306 308 304 301 299 296 296 297 300 301 302 305 304 304 303 302 303 309 311 312 312 300 300 298 300 301 295 293 293 293 292 291 291 290
297 298 300 301 304 306 307 305 303 303 303 305 306 308 302 300 297 295 296 298 300 301 302 301 301 301 301 301 303 306 304 306 299 297 296 297 297 294 292 292 291 290 289 289 288
297 297 298 301 302 303 303 303 303 303 303 304 302 307 299 297 297 294 296 298 300 301 304 302 301 299 295 295 300 299 297 297 297 296 294 294 294 293 291 291 288 288 287 287 287
298 297 298 300 301 304 303 307 308 307 299 298 299 299 298 296 296 294 294 298 301 300 299 299 296 293 292 293 293 294 294 294 295 294 291 293 293 295 290 288 286 286 285 285 285
298 297 298 299 300 305 308 309 305 303 301 299 298 297 296 296 297 294 294 298 298 296 299 296 293 293 293 293 292 293 292 292 293 293 291 291 291 294 290 287 286 285 284 284 284
298 298 298 299 301 306 304 303 305 308 309 300 298 296 295 296 293 293 293 296 295 295 293 293 292 292 292 292 290 291 292 290 290 290 291 291 290 291 289 287 286 285 284 284 283
299 298 298 300 304 304 303 302 306 308 314 304 300 296 296 297 295 293 292 294 295 294 294 292 292 292 292 291 289 290 290 290 290 290 291 291 290 292 288 287 285 283 283 282 282
299 299 298 298 302 304 302 304 307 311 328 302 298 295 296 294 293 295 292 295 292 292 294 291 290 290 291 289 289 290 290 289 290 290 290 290 290 290 290 287 282 280 281 281 282
298 299 298 300 301 302 305 306 310 321 327 302 298 296 297 295 293 294 294 293 292 293 291 290 290 289 289 290 290 289 289 289 290 290 291 292 292 288 287 283 280 281 281 281 280
298 300 297 298 301 303 307 311 319 324 302 302 299 296 295 293 293 293 293 290 290 292 293 290 290 289 289 289 289 288 288 295 293 291 295 290 290 284 282 280 279 281 280 279 280
298 299 297 295 296 305 309 311 318 305 301 297 296 296 296 291 292 293 293 292 290 289 290 291 293 289 289 288 287 287 288 290 285 290 288 289 283 284 279 279 280 282 280 282 280
301 299 298 295 296 302 306 318 310 301 297 296 297 296 296 293 291 292 291 290 289 288 288 288 290 288 288 288 288 287 288 287 287 288 287 288 286 282 284 283 284 280 283 281 281
301 303 300 295 295 301 309 305 299 296 295 295 297 294 296 293 292 293 292 290 289 288 288 288 287 288 288 288 288 287 287 287 288 286 287 283 285 282 281 280 280 278 278 279 281
303 305 298 295 299 305 308 299 296 294 294 294 295 294 293 292 291 291 290 289 289 289 288 288 286 288 288 287 287 287 287 287 286 284 282 285 280 278 278 278 278 278 279 278 279
302 309 298 297 305 300 301 297 294 293 293 293 292 292 292 291 291 291 291 290 289 288 288 288 286 286 289 287 287 287 286 286 285 284 285 284 285 281 279 280 279 278 281 280 280
304 302 300 299 306 298 295 294 294 292 292 292 291 291 290 290 289 290 290 289 288 288 288 288 287 286 286 286 285 286 287 286 285 285 285 286 284 285 282 284 281 280 280 280 279
302 307 303 298 296 299 296 295 293 291 291 291 291 290 290 289 289 289 289 289 288 288 290 287 286 286 285 286 286 286 286 286 285 284 284 285 285 284 283 281 280 280 279 279 279
300 302 295 302 297 296 296 295 294 292 291 290 290 290 290 289 289 289 289 288 288 289 289 286 286 285 286 285 286 286 287 286 285 284 285 285 284 283 281 279 279 279 279 279 279
302 297 293 294 293 295 294 294 294 291 291 291 290 290 289 288 289 288 288 288 288 287 287 286 286 286 286 286 287 286 286 285 286 285 284 284 283 282 280 280 279 279 279 279 278
294 294 298 295 293 294 294 294 294 291 290 289 290 289 288 288 288 288 287 287 287 287 286 286 286 286 286 286 286 284 284 285 284 284 283 282 280 280 280 280 279 278 278 278 278
Wind_Speed
19 18 19 17 15 14 14 13 11 10 7 13 13 15 15 16 26 28 20 16 16 20 15 9 4 4 5 1 3 2 2 4 7 6 7 10 4 9 11 14 18 9 13 14 21
20 21 20 17 16 15 14 11 9 9 6 14 15 15 6 6 4 28 23 20 18 15 13 11 7 8 1 1 0 2 2 4 8 11 9 11 8 7 3 13 10 12 15 19 22
20 21 19 17 18 16 13 7 7 8 6 12 15 6 9 7 3 13 28 23 20 17 10 9 9 5 2 2 2 2 3 5 11 11 8 9 15 10 5 10 10 10 11 18 22
20 21 18 18 17 15 11 7 7 8 6 9 11 4 9 7 2 20 25 23 17 15 10 7 4 4 4 2 2 1 8 11 7 8 4 6 7 9 14 5 8 8 12 16 18
20 21 17 18 14 13 10 9 10 9 8 7 6 5 3 8 8 23 20 20 14 15 19 9 10 6 3 5 5 4 6 8 8 10 13 16 13 7 8 7 8 10 13 12 16
20 20 16 17 11 10 15 16 14 12 6 6 3 4 5 6 12 20 16 19 18 16 17 16 6 7 5 6 6 7 9 8 7 9 4 5 5 2 7 6 8 10 10 12 16
20 20 15 16 9 7 4 7 8 11 17 12 8 14 19 7 16 21 14 14 16 15 10 13 15 7 8 3 5 7 5 6 3 1 4 5 6 8 6 5 8 9 10 10 16
20 19 14 13 8 7 7 7 7 5 3 6 7 10 5 2 15 28 19 10 12 13 8 12 9 5 3 3 4 3 6 5 3 3 3 5 4 7 4 4 6 8 10 11 16
19 18 11 10 10 10 8 7 9 9 10 6 7 3 4 4 13 24 19 13 13 7 9 6 5 2 6 5 4 4 4 3 5 3 4 1 1 7 4 3 7 8 10 11 11
17 19 12 4 7 8 15 15 17 7 7 3 14 4 6 7 10 21 22 11 3 7 3 6 1 4 9 7 2 5 5 7 7 4 5 6 8 8 6 6 8 8 10 11 12
16 18 16 2 7 6 11 5 4 3 20 7 7 6 6 14 6 25 24 8 6 6 5 5 9 7 8 8 6 5 6 8 7 10 3 5 4 8 7 8 8 8 8 9 11
17 15 17 4 6 5 4 3 3 5 8 9 10 9 8 11 4 20 24 6 9 8 4 6 6 4 4 4 7 6 7 7 3 3 8 7 9 3 10 8 8 8 7 10 13
17 15 15 5 4 8 8 4 6 2 2 4 5 5 5 8 6 11 15 5 5 8 10 7 3 1 1 7 9 6 5 5 7 13 11 13 13 16 11 10 9 9 8 9 11
16 15 14 6 3 3 4 3 2 4 3 2 3 5 7 1 4 9 13 2 3 6 7 7 3 2 2 5 7 3 7 8 11 8 4 5 5 6 12 9 9 7 7 6 8
14 12 11 10 3 4 3 3 2 2 2 4 3 2 7 6 6 8 12 7 5 6 3 3 5 6 5 3 3 5 11 13 10 9 8 8 4 2 13 8 3 2 4 6 7
12 8 10 5 6 3 1 2 2 1 3 2 1 4 1 8 4 5 5 5 2 1 8 4 2 4 3 8 4 8 10 19 11 4 3 4 2 2 1 3 2 2 4 6 7
12 6 10 4 3 1 6 2 1 1 2 2 1 4 3 5 4 5 4 8 5 4 2 5 4 2 4 4 5 7 9 3 3 0 4 6 5 4 4 3 4 0 5 5 7
11 5 5 10 1 5 3 2 1 1 3 1 0 2 1 4 2 3 3 2 9 7 3 5 2 1 3 2 3 6 3 2 4 3 6 10 4 4 3 4 4 1 4 8 8
9 4 2 13 2 4 2 1 1 3 2 2 3 4 4 3 2 3 4 3 4 7 5 5 1 3 3 2 3 4 1 3 3 8 3 4 2 3 5 5 3 5 9 8 8
2 2 1 10 1 2 1 3 2 2 1 2 3 1 3 3 3 4 3 3 4 4 4 4 5 2 4 3 4 3 1 1 2 3 5 5 5 3 1 3 4 8 8 8 6
2 2 1 5 1 1 2 3 3 2 2 3 4 2 2 3 1 3 5 3 1 4 3 2 3 2 2 4 3 2 2 2 2 2 3 5 4 5 6 4 6 8 8 6 7
3 3 2 1 2 2 2 2 2 5 1 2 0 3 3 3 2 0 2 4 4 1 1 4 2 4 1 6 4 3 3 3 1 6 6 7 10 3 5 5 5 6 9 11 12
2 2 3 1 2 3 3 3 3 2 1 2 2 1 0 1 1 2 3 5 4 2 3 3 2 4 3 3 4 2 6 6 5 4 10 8 8 4 4 4 6 12 14 13 15
3 2 1 3 1 3 4 4 4 2 2 0 3 1 2 4 3 1 4 5 4 3 3 1 4 5 4 4 4 7 9 6 3 3 8 12 13 11 8 10 11 13 14 14 15
2 2 0 1 1 3 2 6 4 4 2 5 4 6 5 3 3 4 2 6 7 6 4 2 4 6 8 6 7 12 14 5 6 8 7 14 14 9 8 7 11 12 15 16 14
4 3 2 2 1 5 3 7 8 3 6 4 3 8 4 3 1 1 3 4 3 7 5 5 3 8 10 11 14 9 8 9 10 9 6 10 14 7 8 11 14 14 17 15 16
3 3 3 6 3 3 4 4 6 10 1 3 4 5 5 2 4 4 4 4 2 2 5 4 2 4 4 5 11 8 3 3 1 4 5 8 6 8 13 15 14 17 11 14 16
Wind_Direction
9 6 2 0 360 359 356 360 5 5 27 132 123 119 109 83 64 52 33 341 333 335 348 317 282 341 278 110 318 314 305 268 350 29 89 30 74 77 98 87 65 73 54 18 9
9 7 4 6 359 354 349 359 7 14 60 142 141 129 77 3 11 39 358 355 351 357 342 347 5 330 184 69 194 276 287 47 28 27 74 52 56 360 109 57 47 35 32 21 18
9 6 5 4 357 355 354 16 22 23 61 152 154 124 2 346 88 10 353 358 6 2 336 312 305 295 277 299 73 70 4 106 42 22 339 114 76 23 45 53 41 29 21 20 20
9 5 4 3 4 7 21 38 42 44 65 148 162 20 11 359 57 346 351 355 358 358 3 321 275 294 315 280 68 202 41 26 51 15 12 59 91 80 57 77 49 45 40 31 23
9 6 7 6 17 28 36 56 68 65 70 123 158 348 339 57 20 338 1 1 4 14 22 359 21 345 323 5 331 304 103 75 89 77 55 71 70 93 70 69 56 42 36 41 27
10 8 10 9 27 59 72 68 65 47 86 92 68 5 326 75 351 355 8 12 19 10 45 20 357 322 335 42 18 18 95 100 81 87 66 124 103 141 48 29 43 39 38 38 30
10 11 13 12 31 50 68 36 42 75 108 85 73 70 65 72 9 4 11 28 21 23 37 17 1 28 335 87 346 134 125 133 97 3 69 126 135 69 30 16 33 30 29 31 33
10 13 17 16 38 51 61 49 51 85 94 55 59 69 79 7 16 17 14 358 9 27 31 12 10 80 36 292 211 229 215 225 78 349 176 118 121 92 47 19 52 40 35 32 26
9 12 22 30 68 73 76 74 56 70 47 36 20 70 70 18 2 2 14 342 341 2 20 19 59 57 10 315 268 172 270 269 142 89 18 12 40 121 79 46 54 47 41 31 20
8 9 18 76 97 93 77 84 68 57 4 84 21 95 42 353 336 355 360 334 313 311 140 348 50 78 30 8 54 339 341 349 338 141 62 309 270 126 101 68 62 51 38 26 16
2 7 2 336 343 314 261 290 243 59 40 71 34 84 28 340 49 2 352 322 5 51 36 12 60 50 22 14 342 313 316 289 297 24 21 277 326 164 112 75 64 56 40 20 12
1 360 1 10 12 36 50 354 63 121 99 57 81 78 37 340 9 2 2 42 49 54 342 52 82 41 327 32 339 266 279 297 340 48 319 266 258 137 120 103 92 65 40 15 359
4 3 1 5 17 37 77 79 110 51 110 61 72 41 357 9 42 353 4 346 7 44 58 80 71 274 317 57 355 343 339 5 298 324 271 274 265 232 125 120 85 54 31 16 0
4 7 4 9 72 44 56 123 69 359 187 58 13 30 357 21 64 27 359 300 73 48 79 79 47 22 31 59 10 296 13 321 309 320 287 52 286 87 147 136 80 42 19 355 339
4 11 14 38 14 45 329 243 324 311 349 52 49 332 36 63 323 22 25 13 51 22 264 76 58 6 61 11 330 276 331 287 271 268 293 256 242 336 137 129 97 31 350 338 328
0 11 26 54 43 12 45 108 328 322 275 86 84 2 205 54 42 335 23 54 332 31 29 92 98 51 347 294 209 285 293 286 243 233 270 21 187 302 115 152 155 359 349 318 328
352 352 29 54 151 112 122 207 3 233 95 78 3 6 108 24 43 20 68 44 24 349 61 157 105 116 347 332 173 353 327 342 348 258 237 76 323 228 191 112 125 342 300 312 310
351 358 21 27 37 142 133 186 117 90 78 147 271 232 16 346 111 2 289 90 42 349 304 346 285 39 6 80 299 295 334 111 266 305 286 307 245 284 136 144 200 325 307 315 307
358 12 15 350 39 154 250 189 198 36 32 342 179 253 142 162 244 226 60 92 39 21 34 350 136 134 68 344 357 345 55 67 273 240 253 227 79 320 178 218 194 331 313 294 303
1 246 205 350 73 137 31 69 85 34 341 241 288 302 330 79 284 23 110 76 121 37 329 65 299 122 138 210 221 296 8 167 187 294 299 306 311 244 230 236 300 299 288 293 309
349 288 304 348 101 143 97 95 121 103 340 352 4 307 86 6 7 343 68 117 64 139 314 71 142 178 172 194 61 203 247 248 283 168 231 300 264 202 196 207 249 279 286 309 317
317 296 352 11 66 25 84 68 73 139 158 125 9 23 9 40 282 226 57 87 86 18 296 76 330 281 354 80 72 356 301 318 220 293 319 306 296 167 173 204 232 274 335 339 334
303 261 4 33 226 117 142 92 39 154 90 169 112 5 70 150 265 124 126 129 151 224 10 105 198 295 144 116 12 256 232 231 247 242 265 278 276 200 228 240 0 350 345 338 336
301 292 3 67 324 102 153 164 146 356 110 117 113 180 182 210 158 126 199 168 150 236 125 70 245 224 231 277 303 285 295 296 257 271 289 273 302 321 343 6 354 342 338 338 326
70 254 108 258 96 93 115 146 145 187 245 202 160 228 191 214 198 210 168 143 182 211 173 211 262 270 273 283 286 270 272 271 267 256 267 298 300 312 6 1 345 338 335 327 321
167 157 235 106 162 146 142 201 181 122 162 198 246 162 200 230 23 205 180 186 219 164 183 183 269 315 288 273 263 271 264 235 246 283 280 304 300 342 357 350 342 333 328 329 340
197 149 139 149 182 183 199 161 183 135 94 351 199 133 209 267 50 25 343 339 29 171 195 207 256 328 261 331 321 303 284 128 38 283 288 290 301 8 342 335 334 324 345 345 333